RH
22 22 23 25 28 30 33 35 36 36 36 36 36 36 38 39 41 42 43 45 46 47 48 49 49 49 48 47 47 47 47 48 49 49 49 49 48 48 47 47 47 47 46 46 45 44 43 42 42 42 41 41 40 39 39 38 38 38 38 39 40 41 42 44 43 41 41 41 40 41 42 39 35 32 31 31 30 29 29 28 28 28 26 23 21 22 21
23 23 23 24 26 29 31 34 37 38 39 39 39 39 39 39 40 41 42 43 44 46 47 47 49 49 48 49 48 48 49 50 50 50 50 50 49 48 48 47 46 46 46 47 46 45 45 44 43 43 43 43 42 42 41 41 41 41 40 40 40 40 40 42 43 42 43 44 43 42 43 40 35 31 28 28 29 28 29 29 28 27 27 24 21 20 21
27 25 25 24 25 27 29 32 36 39 41 42 42 43 42 42 43 43 43 43 43 44 45 44 46 46 46 47 47 48 49 49 50 50 50 50 50 50 50 49 48 47 46 47 47 47 47 46 45 44 44 43 43 43 43 43 43 43 42 41 40 40 39 38 39 37 37 38 38 36 36 35 31 28 27 28 29 30 31 30 28 26 26 24 21 19 20
33 30 28 27 26 26 27 29 32 36 39 42 44 45 45 45 45 44 43 43 42 43 43 43 44 44 44 45 45 45 47 48 49 50 50 51 51 51 52 52 51 51 49 48 48 48 48 48 48 46 45 44 43 43 43 43 44 44 43 43 41 41 40 38 37 35 32 31 30 29 31 33 32 30 29 29 30 31 31 29 28 26 26 26 23 20 20
40 39 36 35 32 30 29 28 29 32 34 37 41 43 45 45 46 45 43 43 42 42 43 42 43 43 43 44 44 44 46 47 48 50 51 52 52 51 52 52 52 52 51 49 49 49 49 49 49 47 45 43 42 42 42 42 42 42 42 42 41 42 42 39 38 37 33 31 31 31 31 34 35 33 32 31 31 30 30 29 28 27 26 26 25 22 21
46 46 45 45 42 40 37 34 32 32 32 34 37 39 41 42 43 43 42 42 43 42 42 42 42 43 43 43 44 44 45 46 47 48 49 49 49 49 50 50 51 51 51 50 49 49 49 49 48 47 45 43 42 41 40 40 40 40 40 39 39 40 41 40 40 41 38 33 33 33 32 34 34 32 32 32 31 30 30 29 29 28 27 26 25 23 22
47 49 50 51 51 50 49 46 43 41 38 37 37 38 39 40 41 41 41 41 42 42 42 42 42 43 43 43 44 44 44 45 45 46 47 47 47 47 48 49 50 50 50 50 49 49 49 49 47 45 43 42 41 41 40 39 39 39 39 38 38 39 41 40 41 45 45 38 35 35 34 33 32 30 30 31 31 30 28 27 28 28 27 26 24 23 22
44 46 48 50 52 53 54 54 53 52 50 48 46 45 44 43 44 44 43 43 43 44 44 45 45 45 45 44 45 45 45 46 46 47 47 48 49 49 49 50 50 51 51 51 50 49 48 47 46 44 44 43 43 43 43 43 42 42 42 42 40 40 41 41 40 46 49 44 38 37 34 32 31 29 29 30 29 28 27 26 26 26 26 25 23 21 21
39 42 44 46 48 50 51 53 54 55 55 55 55 54 52 52 51 50 49 48 47 47 46 46 47 47 46 47 47 46 47 47 48 49 50 50 51 52 52 53 52 52 51 51 50 49 49 49 48 48 49 49 48 48 48 49 48 48 46 45 43 41 41 40 38 41 45 43 38 36 34 32 30 27 27 28 27 26 26 25 25 24 23 22 21 20 20
34 37 39 41 43 45 47 49 51 52 53 54 55 56 56 57 57 56 56 57 55 55 54 54 54 54 53 54 53 54 54 54 54 55 55 55 55 55 55 55 55 54 54 53 53 53 53 53 52 52 52 52 51 50 50 49 48 47 45 44 42 39 38 38 35 36 39 38 36 35 35 33 29 26 26 26 25 24 24 25 24 21 19 19 20 20 20
32 34 36 38 40 42 43 45 47 48 50 51 52 54 54 55 57 57 58 59 59 60 60 61 62 62 62 62 62 62 63 62 62 63 63 62 62 61 61 61 61 61 60 59 58 57 56 55 54 54 52 52 51 50 49 48 46 45 43 42 41 38 37 36 35 34 36 37 34 33 34 33 27 23 24 24 23 23 23 24 24 19 17 18 20 20 20
33 34 35 36 37 39 40 41 42 43 45 46 48 50 51 51 53 54 55 57 58 58 60 60 61 62 63 64 64 65 65 65 65 65 66 66 65 65 64 64 64 64 62 60 59 58 58 57 56 55 54 54 53 51 51 50 49 47 45 43 42 40 38 36 34 33 34 33 30 29 31 31 25 20 21 22 21 20 20 23 24 20 17 18 19 20 20
31 33 35 36 37 38 39 39 40 40 41 42 43 45 47 47 49 51 52 54 56 56 58 59 60 61 61 62 62 63 63 64 64 64 63 64 63 63 62 62 62 62 60 59 58 57 57 57 56 56 55 54 54 53 52 51 50 49 46 44 42 39 37 35 32 30 29 28 26 24 26 27 24 20 19 19 19 19 19 21 23 21 18 18 20 20 20
25 26 28 31 32 34 36 37 38 39 40 40 40 41 42 42 45 47 48 50 52 53 54 56 57 59 60 61 61 62 62 62 62 62 62 62 62 61 60 59 59 58 57 57 57 56 55 53 53 54 53 52 51 51 50 49 48 47 44 41 38 35 33 31 29 27 25 24 23 23 23 24 22 19 18 19 18 18 17 19 21 21 19 19 20 20 20
24 24 25 26 27 28 29 30 31 33 34 34 35 35 35 35 36 37 38 40 41 42 44 45 47 48 50 52 53 54 55 56 56 57 56 56 56 56 55 54 53 53 52 52 52 51 49 47 46 47 47 46 45 44 44 43 43 43 40 37 34 32 30 28 26 25 23 21 21 21 22 23 21 18 17 17 17 17 17 17 19 21 20 20 20 21 21
27 25 25 24 24 25 25 26 26 27 28 29 29 30 30 30 30 30 30 30 31 32 33 33 34 35 36 37 38 39 41 41 42 44 44 45 45 45 44 44 43 43 42 42 41 40 39 38 37 36 36 36 35 34 35 34 35 35 33 31 29 27 26 25 24 23 21 20 19 19 20 20 20 18 16 16 16 16 15 15 18 20 21 20 21 23 23
56 49 43 39 35 32 29 28 27 26 26 26 27 28 28 27 27 27 27 26 25 25 26 26 26 27 27 28 28 29 29 30 30 31 32 32 33 33 33 33 32 32 32 31 31 30 30 29 28 28 28 27 26 26 26 27 27 27 26 25 24 23 23 22 22 22 20 19 19 19 20 21 20 18 17 16 15 15 15 15 17 19 20 20 22 25 26
87 82 77 71 67 62 57 53 49 46 43 40 40 40 38 36 33 33 34 32 30 28 27 26 24 23 23 23 23 23 23 23 23 24 24 24 24 24 24 25 24 24 24 24 23 23 23 22 22 22 22 22 22 21 21 22 21 21 22 21 21 21 22 22 22 22 21 21 20 19 21 23 21 19 18 16 16 16 15 15 17 19 20 22 26 31 32
100 98 98 95 93 91 88 85 82 80 76 73 70 67 64 62 58 54 53 51 48 44 41 38 35 31 28 26 24 23 22 21 21 21 21 21 21 21 21 20 20 20 19 20 20 19 19 19 19 18 19 19 19 18 19 20 20 21 22 21 22 23 24 27 28 28 28 28 26 24 26 26 23 20 18 15 15 15 15 16 21 25 27 30 35 41 43
97 98 101 102 102 103 103 102 102 101 99 97 95 91 89 88 86 82 79 76 73 69 62 56 52 47 43 38 35 31 28 26 24 22 21 21 20 20 20 20 19 18 18 19 19 18 18 18 18 18 18 18 18 18 19 20 21 24 25 23 24 28 34 40 41 40 42 43 40 38 35 29 24 22 20 17 17 20 21 24 32 39 42 43 45 49 51
81 82 85 88 90 93 96 96 98 100 99 99 99 97 95 95 94 93 92 90 89 88 83 77 71 67 62 57 52 49 45 43 39 35 33 31 28 27 27 25 23 22 21 22 22 21 20 20 20 20 20 21 22 22 23 23 26 33 37 35 35 43 54 62 63 63 67 68 64 60 53 42 33 31 29 26 26 29 31 34 40 48 52 51 51 53 55
71 70 70 71 72 74 76 78 80 83 84 86 87 87 86 86 86 86 86 85 84 85 83 81 78 76 73 69 65 62 60 58 56 54 53 52 50 49 47 45 42 39 38 38 37 36 35 34 34 34 34 36 36 36 36 36 40 48 53 54 58 67 77 83 85 86 89 88 81 75 68 56 45 39 36 35 35 36 37 39 43 48 51 51 51 54 59
68 67 66 65 64 63 63 64 64 66 67 68 70 71 72 73 74 74 75 74 73 73 73 73 72 71 70 68 66 64 62 60 59 58 58 59 59 59 58 57 55 52 51 51 50 49 48 47 47 47 47 49 49 48 48 48 51 56 59 61 70 82 90 93 95 96 95 93 89 85 78 67 55 47 42 39 39 42 46 48 48 49 48 46 47 51 58
66 66 64 64 62 61 60 59 58 57 57 57 57 58 58 59 59 60 60 60 60 60 59 60 60 59 58 58 57 55 54 53 52 51 51 51 53 54 54 53 52 51 51 50 49 49 49 49 49 49 50 51 52 50 50 50 52 54 55 58 69 80 85 87 88 89 87 86 87 86 78 65 57 54 49 42 39 44 49 52 50 46 42 41 44 50 56
61 60 59 59 58 58 57 56 55 54 53 52 52 51 51 50 50 50 50 49 49 49 48 47 47 46 46 45 43 42 41 40 39 38 37 37 37 38 39 39 38 39 39 38 37 38 39 39 40 40 41 42 42 41 41 42 41 41 43 51 61 68 71 72 72 74 75 75 77 74 64 55 54 54 47 40 39 44 48 49 45 40 37 38 42 47 51
54 53 52 52 51 50 50 49 49 48 47 46 46 45 44 44 43 42 42 41 40 40 39 38 37 36 36 35 34 32 31 29 28 27 26 25 25 24 24 25 24 24 25 25 25 25 25 26 27 28 28 28 29 29 29 30 30 29 32 39 46 51 53 54 55 58 60 61 61 56 49 49 53 52 44 38 38 40 42 43 40 37 36 37 40 43 44
49 48 47 46 45 44 43 42 41 40 39 38 38 37 36 36 35 35 34 33 33 32 31 31 30 28 27 27 26 25 23 21 20 18 17 17 16 15 15 15 15 15 15 15 15 15 16 16 16 17 18 17 17 18 18 19 20 20 22 26 31 34 36 37 40 43 44 42 42 39 38 42 47 45 41 37 34 33 34 36 37 37 37 37 38 39 40
45 43 42 40 39 38 37 36 35 34 33 32 31 30 29 29 28 27 27 27 26 26 26 25 25 24 23 22 21 21 20 18 16 14 12 11 11 10 10 10 10 10 10 9 10 10 10 10 10 10 11 10 10 11 11 11 12 12 14 17 20 22 24 25 27 28 28 27 28 29 31 34 35 33 30 27 25 25 25 26 27 29 29 29 30 31 33
39 38 36 36 35 34 33 33 32 31 29 28 27 26 25 24 23 23 22 22 22 22 22 22 22 21 21 21 20 20 20 20 17 13 10 9 8 8 8 7 7 7 7 7 8 8 7 8 8 8 7 7 7 7 7 8 8 9 10 12 14 16 18 18 18 17 17 18 20 22 23 24 24 23 21 19 18 19 19 19 19 19 19 20 21 22 23
37 36 36 35 34 34 33 33 32 31 29 28 26 25 24 23 21 20 19 19 19 19 20 21 22 22 21 21 21 21 22 23 22 18 14 10 8 7 7 7 7 7 7 7 7 8 8 8 8 7 7 7 6 6 6 7 8 9 10 12 13 14 14 14 13 13 13 14 16 17 17 16 16 17 16 15 15 16 16 16 16 15 15 15 15 15 16
37 36 36 35 34 34 33 32 32 31 29 28 27 26 25 24 22 21 20 20 19 19 20 21 23 23 23 23 23 23 24 25 26 25 21 16 11 9 8 8 8 8 8 8 8 8 9 9 9 9 9 8 7 7 7 8 9 11 12 12 12 12 12 12 12 12 12 12 12 13 13 12 12 13 14 13 13 13 13 13 12 12 12 12 12 12 12
37 36 35 34 33 32 31 30 29 28 28 28 27 26 25 25 23 22 21 20 20 20 21 22 23 24 24 24 23 24 25 25 27 29 27 22 17 13 11 10 10 9 9 9 9 9 9 10 10 10 10 10 9 8 9 10 12 12 11 11 11 11 12 12 12 11 11 10 10 11 12 12 12 12 13 12 11 11 11 11 11 11 11 11 11 11 11
39 37 35 33 31 30 29 27 27 27 27 28 28 27 26 24 23 22 20 20 20 20 21 22 23 23 23 23 23 23 24 25 27 30 30 28 25 21 17 15 13 12 11 10 10 10 10 10 10 11 11 11 10 10 11 13 13 12 10 10 10 11 11 11 11 10 10 10 10 11 11 11 10 10 10 10 10 10 10 10 11 11 11 11 12 11 11
42 39 36 33 30 28 27 26 27 29 32 33 33 31 28 26 23 22 20 19 20 21 20 19 20 20 21 21 22 22 23 25 27 28 30 31 31 29 25 22 19 17 16 14 12 11 10 9 10 11 12 12 12 12 13 13 12 11 10 10 10 10 10 10 10 10 10 10 10 10 10 9 9 8 8 8 8 8 8 8 9 10 10 10 11 11 11
49 43 37 34 32 30 29 31 33 36 40 43 41 36 31 26 23 21 19 18 18 19 18 17 16 17 18 19 20 21 21 23 25 27 28 31 33 34 33 30 25 22 20 18 15 13 11 10 10 11 12 13 13 14 13 12 11 10 10 11 10 10 10 10 9 9 9 9 8 8 8 8 8 7 7 7 7 7 7 8 8 8 9 9 9 10 10
64 54 45 42 39 35 33 35 39 44 48 51 49 42 34 28 24 20 18 18 18 16 15 15 13 13 14 15 16 17 19 20 22 24 25 28 32 34 35 35 31 27 24 20 17 15 13 12 12 13 14 14 15 14 12 11 10 10 11 11 11 11 10 10 10 10 9 8 8 8 8 8 8 7 7 7 7 7 8 8 8 8 8 9 9 9 9
78 69 61 55 47 39 36 41 47 52 57 59 58 51 43 35 29 24 21 20 19 15 13 12 11 10 12 12 13 14 15 17 19 21 23 26 29 32 35 36 34 32 29 24 19 16 15 15 14 14 16 17 17 15 12 12 12 12 12 13 13 13 12 12 11 10 10 9 8 8 8 7 7 7 7 7 7 8 8 8 8 9 9 9 10 10 10
92 86 79 69 55 44 44 50 57 63 67 68 67 62 54 43 36 31 27 24 22 18 15 13 11 11 11 11 12 13 14 15 17 19 20 22 26 29 33 35 34 33 32 28 21 18 17 18 17 16 17 19 18 16 14 14 15 14 14 14 14 14 14 13 12 12 11 11 10 9 9 8 8 8 8 8 7 8 8 8 8 9 9 9 10 10 10
99 93 83 68 54 49 54 62 69 74 77 76 72 67 59 49 42 38 35 32 29 24 20 16 14 13 12 12 12 13 14 14 15 16 17 19 21 24 28 31 32 33 34 31 25 21 20 20 20 19 18 18 18 17 17 17 17 17 16 15 14 13 13 13 12 12 11 11 11 10 10 10 10 9 9 9 9 9 9 9 9 10 10 11 11 11 10
96 89 76 61 55 59 68 75 79 84 87 85 77 68 60 54 50 48 45 41 37 32 27 23 19 16 15 14 14 14 14 13 13 13 15 17 18 20 23 27 29 32 34 32 28 24 23 23 22 21 19 17 17 17 17 18 17 17 16 14 13 13 12 12 12 11 11 10 10 10 9 9 9 9 10 10 10 11 11 11 11 11 11 12 12 12 12
88 81 71 64 68 76 82 85 87 90 90 86 78 70 66 63 60 56 54 51 48 43 37 30 25 20 17 16 15 14 13 12 11 12 13 14 16 17 19 22 26 29 32 33 30 27 24 23 22 21 20 19 18 16 15 15 15 15 14 14 13 12 11 11 11 11 10 10 10 10 9 9 9 9 9 9 9 10 10 11 11 12 12 12 13 13 13
76 74 74 78 85 90 90 90 91 89 84 79 75 74 73 71 69 66 64 62 60 54 43 33 26 23 20 17 15 12 11 11 10 11 11 12 13 14 16 19 23 25 28 30 30 28 25 22 20 20 20 20 18 16 14 14 14 14 13 13 12 11 11 11 10 10 10 10 9 9 9 9 9 9 9 8 8 9 9 9 9 10 10 11 12 12 12
78 82 87 92 94 93 91 89 86 83 80 78 78 80 81 80 80 82 80 73 65 56 44 34 28 24 21 17 13 11 11 10 10 10 11 11 11 12 14 16 20 22 24 26 27 27 26 24 22 21 21 21 19 17 16 16 15 14 14 13 12 11 10 10 9 9 9 9 9 8 8 8 8 8 8 8 8 8 8 8 8 9 9 9 10 11 11
89 91 91 91 89 86 83 80 78 79 82 85 86 89 91 90 90 91 86 76 65 54 42 33 28 24 19 16 13 11 11 10 10 11 11 11 10 11 13 14 16 18 20 21 22 23 25 25 24 24 24 23 21 20 18 17 16 14 14 13 12 11 10 9 9 8 8 8 8 8 7 7 8 8 8 8 8 8 8 8 8 8 8 8 9 9 9
82 78 75 74 74 72 73 76 79 85 92 96 97 97 97 96 94 89 80 68 58 48 38 30 25 21 17 15 12 11 11 11 10 10 11 10 10 11 13 14 15 15 16 17 18 19 21 22 23 24 24 25 24 23 22 20 18 16 14 13 13 12 11 10 9 8 8 7 7 7 7 7 7 7 7 7 7 7 7 7 7 8 8 8 8 8 8
63 61 62 66 70 73 80 87 90 93 99 102 101 99 98 95 90 81 69 58 50 42 34 28 22 18 16 15 13 11 12 12 11 11 11 11 11 12 13 13 13 13 14 14 15 16 17 19 20 21 22 23 24 24 23 22 20 18 16 14 13 13 12 11 10 9 8 8 7 7 6 6 6 7 7 7 7 7 7 7 7 7 7 6 6 6 6
61 63 68 75 79 83 88 93 95 97 99 98 94 91 87 82 74 65 56 49 44 38 31 25 20 17 15 14 13 13 13 13 12 11 12 13 12 13 12 12 11 12 12 13 13 14 15 16 17 18 19 20 21 21 21 20 19 18 16 15 13 12 12 11 11 10 10 9 8 7 7 6 6 6 6 6 6 7 7 7 6 6 6 6 5 5 5
67 69 74 79 82 85 88 89 88 86 84 79 75 73 69 66 64 60 53 45 39 33 26 22 18 16 15 15 15 14 15 14 13 13 14 15 14 13 12 11 10 11 12 12 12 12 13 14 15 16 17 18 18 18 18 18 17 16 15 14 13 12 11 11 10 10 10 10 9 8 8 7 6 6 6 6 6 6 6 6 6 6 5 5 5 5 5
67 70 74 78 79 78 77 72 68 66 65 64 63 63 62 63 65 62 51 40 34 29 23 19 17 15 16 17 16 15 16 16 16 15 15 14 14 12 11 10 9 10 10 11 11 11 12 13 13 14 14 15 15 15 15 15 14 14 13 12 12 11 10 9 9 9 9 9 9 9 8 7 6 6 6 6 5 5 6 6 6 6 5 5 5 4 4
66 69 71 71 68 65 61 58 57 61 64 66 66 66 66 66 64 57 47 40 37 31 25 21 18 17 16 16 16 15 16 17 16 15 14 13 12 11 10 9 9 9 10 10 10 10 11 11 12 12 12 12 12 12 12 12 11 11 11 10 10 9 9 8 8 8 8 8 8 7 7 6 6 5 5 5 5 5 5 5 6 6 5 5 5 5 4
66 67 66 64 63 62 62 62 65 69 71 73 73 71 69 66 62 57 52 47 41 34 27 24 21 18 16 17 18 19 18 18 16 15 13 12 11 11 10 8 8 9 9 9 9 10 10 10 10 11 11 11 11 10 10 10 9 9 9 9 8 8 8 7 7 7 7 7 6 6 5 5 5 5 4 4 4 4 5 5 5 5 5 5 5 5 4
67 68 69 71 73 73 72 74 78 79 79 79 79 76 71 69 67 64 58 50 42 37 32 27 20 17 18 21 23 23 21 19 17 14 12 11 11 11 9 8 8 8 8 8 8 8 8 9 9 9 9 9 9 8 8 8 7 7 7 7 7 7 6 6 6 6 6 5 5 4 4 4 4 4 4 4 4 4 4 4 4 4 5 5 5 5 5
Wind_Speed
26 26 26 26 27 27 27 27 27 27 26 26 26 26 27 27 28 28 29 29 30 30 30 30 31 31 32 32 32 32 32 32 33 33 33 34 34 35 35 36 37 37 38 39 40 40 41 42 43 44 45 46 46 47 48 48 50 50 51 52 53 53 53 54 55 55 57 59 59 61 63 64 64 64 65 67 69 71 72 72 73 74 77 78 75 74 76
26 26 26 26 27 27 28 28 28 28 28 28 28 28 28 28 29 29 30 31 31 32 32 32 33 33 34 34 35 35 36 36 36 36 37 37 38 38 39 39 40 41 41 42 43 43 44 45 46 47 48 49 49 50 51 51 52 53 53 54 55 55 55 55 56 57 57 59 61 62 64 66 65 65 65 67 69 71 73 74 74 75 77 79 77 75 76
26 26 26 26 27 28 29 29 30 30 30 30 30 30 30 30 31 32 32 32 33 34 34 35 35 36 36 37 37 38 38 39 39 40 40 41 41 42 43 43 44 45 45 46 47 47 48 48 49 50 51 52 52 53 53 54 55 55 56 56 57 58 58 57 58 59 57 58 59 60 62 65 66 65 65 67 69 72 74 75 76 75 76 79 80 78 77
26 26 26 26 27 28 29 30 31 32 32 32 33 33 33 33 33 34 34 34 35 36 37 37 38 39 39 39 40 40 41 42 42 43 44 44 45 45 46 47 48 49 49 50 51 51 52 52 53 54 54 55 56 56 56 56 57 58 58 59 59 60 61 61 61 63 62 60 61 61 63 66 68 68 68 69 71 73 76 77 78 78 78 80 82 82 80
27 27 27 27 28 28 29 30 31 32 33 34 35 35 35 36 36 36 37 37 37 38 39 39 40 41 41 42 43 43 44 45 45 46 47 48 48 49 50 50 51 52 52 53 54 54 55 55 56 57 57 58 58 58 59 59 59 60 60 61 61 61 63 64 64 66 67 65 64 65 66 68 71 71 71 72 73 75 78 80 81 81 81 82 83 84 84
29 29 29 29 29 30 30 31 32 33 35 35 36 37 38 38 39 40 40 40 41 42 42 42 43 43 44 45 45 46 47 47 48 49 49 50 51 52 52 53 54 54 55 55 56 57 57 58 58 59 60 60 60 61 61 61 61 62 62 63 63 62 64 65 65 67 71 70 67 67 68 70 73 74 73 73 75 77 79 82 84 84 84 85 85 86 87
31 31 31 31 31 32 32 33 34 35 36 37 38 39 40 41 42 43 43 43 44 45 45 45 46 46 47 47 48 49 50 50 51 52 52 53 54 54 55 56 56 57 57 58 58 59 60 60 61 61 61 62 62 62 63 63 63 64 64 65 65 65 65 66 66 67 72 74 72 70 71 72 74 75 74 75 76 78 79 82 85 86 86 86 86 86 87
34 33 33 33 33 33 34 34 35 36 37 38 39 40 42 43 44 45 45 45 46 47 48 48 48 49 50 50 51 52 52 53 54 54 55 56 56 57 58 58 59 59 60 60 61 61 62 62 63 63 63 64 64 64 65 66 66 66 67 67 68 67 67 68 68 67 71 75 75 74 74 74 76 77 76 76 77 78 79 82 86 88 87 87 87 87 87
36 36 35 35 35 35 35 35 36 37 37 38 39 40 41 43 44 45 46 47 47 48 49 50 50 51 52 52 53 54 55 55 56 57 57 58 59 59 60 61 61 62 62 63 63 64 64 65 65 65 66 66 67 67 67 68 69 69 70 70 71 71 70 71 71 69 71 75 76 75 75 76 78 78 77 77 78 78 79 82 86 88 87 86 87 88 88
38 38 38 38 38 38 38 38 38 39 39 39 40 41 42 43 44 44 45 46 48 48 49 50 51 52 53 54 55 55 56 57 57 58 59 59 60 61 62 63 64 64 65 65 65 66 66 67 67 67 68 68 69 69 70 71 71 72 73 73 74 74 74 74 74 73 73 75 77 76 76 78 80 80 79 79 79 78 79 82 86 88 86 86 87 89 89
40 40 41 41 41 41 42 42 42 42 42 43 43 44 44 45 46 46 47 48 49 49 50 51 52 53 54 55 55 56 57 58 58 59 60 61 62 62 63 64 64 65 66 66 67 67 67 68 68 69 69 70 71 72 72 74 75 75 75 76 76 77 77 78 78 77 76 78 79 78 78 80 82 81 80 81 80 79 79 82 86 87 86 86 88 89 90
44 44 44 44 44 45 45 45 46 46 46 47 47 47 48 48 49 50 50 51 52 52 53 54 55 56 56 57 58 58 59 60 61 61 62 63 64 64 65 66 66 67 68 68 69 69 70 70 71 71 72 73 74 74 75 76 77 78 79 80 80 80 80 81 82 81 80 81 81 80 79 82 84 83 82 82 82 80 80 82 87 88 86 85 87 88 89
46 47 47 48 48 48 48 49 49 49 50 50 50 51 52 52 53 54 54 55 56 56 57 58 59 59 60 61 61 62 63 63 64 65 65 66 67 67 68 68 69 70 71 71 72 72 73 73 73 74 75 76 77 77 78 79 80 81 83 83 84 84 84 84 84 84 84 84 84 83 81 83 86 86 85 85 83 82 81 81 85 88 87 86 87 87 88
46 47 48 49 50 50 51 52 52 53 54 54 54 55 56 56 57 58 58 59 60 61 61 62 63 63 64 65 66 66 67 67 68 69 69 70 71 71 71 72 72 73 73 74 75 76 76 76 76 76 77 79 80 80 81 82 82 84 86 87 87 86 87 87 87 87 88 87 87 86 84 86 89 89 87 86 85 84 83 81 82 86 87 87 87 87 88
44 45 47 48 49 51 52 53 54 55 56 57 57 58 59 60 60 61 62 63 63 64 65 66 67 67 68 69 69 70 71 71 72 72 73 73 74 74 75 75 75 76 77 77 78 79 79 79 79 79 79 81 81 82 82 83 84 86 88 89 89 89 89 90 90 90 91 91 89 88 86 87 91 91 89 87 86 85 84 81 80 84 87 87 87 87 88
41 43 44 46 48 49 51 52 53 55 56 57 58 59 60 61 62 63 64 65 66 67 68 69 69 70 71 72 72 73 73 74 74 75 75 76 77 77 78 78 78 79 80 80 81 81 81 82 82 82 82 82 83 83 84 85 85 87 89 90 91 91 92 92 92 92 93 93 92 91 89 90 92 93 91 89 87 86 85 81 79 82 86 86 86 86 87
40 41 42 44 45 47 49 50 52 53 54 56 57 58 60 61 63 64 65 66 68 69 70 71 72 73 73 74 75 75 76 76 77 77 77 78 79 80 80 80 81 82 82 83 83 83 83 84 85 85 84 85 85 85 85 85 86 88 89 90 91 92 92 92 92 93 94 94 93 92 91 93 95 95 93 90 88 87 86 82 80 82 85 86 85 85 86
41 42 43 44 45 46 48 49 50 51 53 54 56 57 58 60 62 63 64 66 67 69 71 72 74 74 75 76 77 77 78 78 79 79 79 80 82 82 82 83 84 85 85 85 85 85 86 86 87 87 86 86 87 88 87 87 88 88 89 90 91 92 92 92 92 93 94 94 94 93 92 95 97 97 95 92 90 89 88 85 83 84 85 86 86 86 86
44 45 45 46 47 48 49 50 51 52 53 55 56 57 58 60 61 62 64 65 67 69 70 72 73 75 76 77 77 78 79 79 80 80 80 81 83 84 84 85 86 86 86 87 87 87 88 88 88 88 88 88 89 89 88 88 88 89 89 90 91 92 92 91 92 93 94 95 94 93 94 96 97 96 95 93 92 92 90 87 86 86 86 86 87 88 89
48 49 49 50 51 52 52 53 54 55 56 57 58 59 60 61 63 64 65 67 69 70 72 74 75 76 77 78 78 79 79 80 81 81 81 82 83 84 84 85 87 87 87 87 88 89 89 88 89 89 89 89 90 90 89 89 89 89 90 91 92 92 93 93 93 94 95 96 95 94 97 98 98 95 93 92 92 93 92 89 88 88 89 89 89 90 92
52 52 53 54 55 56 57 57 58 59 60 61 62 63 64 65 66 68 69 70 72 73 75 77 78 79 80 80 81 81 82 82 83 83 84 84 84 85 86 87 88 88 88 88 89 90 90 90 90 90 90 90 91 91 91 90 88 89 91 92 92 93 95 96 96 96 99 99 96 96 101 102 99 96 94 94 94 95 94 93 92 92 94 94 93 93 95
55 56 57 58 59 60 61 62 63 63 64 65 66 67 68 70 71 72 73 75 76 77 79 81 82 83 84 85 86 86 86 86 86 86 87 87 88 88 89 90 90 91 91 91 92 92 92 92 92 92 92 92 93 94 94 93 91 91 93 94 94 94 97 100 99 100 104 105 101 101 105 106 101 98 97 97 98 99 99 99 99 98 99 99 98 97 97
58 59 60 61 62 63 64 66 67 67 68 70 70 71 72 74 75 76 77 78 80 82 83 85 86 87 89 90 91 91 91 91 91 91 91 91 91 92 93 94 95 95 95 96 96 96 96 96 96 96 96 96 98 98 98 97 96 96 97 97 96 97 100 103 102 103 108 110 106 106 109 107 103 101 101 102 101 101 101 103 104 104 104 103 103 102 101
59 60 62 63 64 65 67 68 69 71 72 73 74 75 76 77 78 79 80 81 83 85 87 89 90 91 92 94 95 96 96 96 96 96 96 96 95 96 97 98 99 99 100 100 100 100 100 100 101 101 100 101 102 102 102 101 101 101 100 99 98 100 104 106 106 109 113 114 111 111 111 108 104 104 105 105 103 102 103 106 107 107 106 106 105 105 105
61 62 63 64 66 67 69 70 71 73 74 75 76 77 78 79 81 82 83 84 85 87 89 91 93 94 95 97 99 99 100 100 100 100 100 99 99 99 99 100 101 101 102 103 103 103 103 103 103 103 103 103 105 105 105 105 104 104 102 100 101 105 107 108 111 114 117 118 117 115 113 109 107 107 107 105 104 103 105 107 109 109 108 107 107 107 108
64 65 66 67 68 69 71 72 74 75 76 77 78 79 80 81 82 83 84 85 86 87 89 91 93 95 95 97 99 101 102 102 102 102 102 101 100 100 100 100 101 101 102 103 103 103 103 103 103 103 103 104 105 105 105 106 106 105 103 101 103 108 111 112 115 117 119 120 120 120 117 112 110 110 109 107 105 105 105 107 109 109 109 108 108 108 110
66 67 68 69 70 71 73 74 76 77 78 78 79 79 80 81 82 82 83 84 84 85 87 89 91 93 94 94 96 98 101 102 102 101 100 100 99 99 98 98 98 98 99 99 100 100 100 100 100 101 101 102 103 103 103 103 103 103 101 101 105 109 111 114 117 120 120 120 121 121 120 116 112 110 109 108 108 107 107 108 109 109 110 109 109 109 110
66 67 68 68 69 70 71 73 74 76 77 78 78 79 79 79 80 80 81 81 81 81 82 84 86 88 89 90 92 93 96 99 101 101 100 98 97 97 96 95 95 95 95 95 95 95 95 96 96 97 98 99 100 99 98 98 98 97 96 98 103 107 109 112 116 119 119 119 118 119 120 119 116 113 110 108 107 107 107 108 108 108 109 109 109 109 109
62 62 63 64 64 65 66 68 70 72 73 75 76 76 77 77 78 78 78 78 78 77 78 79 82 84 85 86 87 88 89 93 98 100 100 98 96 95 94 93 92 92 91 91 90 90 90 90 91 92 94 95 96 95 93 93 93 92 92 96 99 103 107 109 112 114 115 114 114 115 116 118 118 116 113 110 108 106 106 106 107 107 108 108 109 109 109
58 59 59 60 61 61 62 64 65 68 70 71 73 73 74 75 76 76 75 75 75 74 74 75 77 80 81 82 82 83 84 87 91 96 99 98 96 94 92 91 90 89 88 87 87 86 86 86 87 89 90 92 94 92 90 90 90 89 91 95 97 100 103 106 107 109 109 109 108 109 111 114 115 114 112 111 109 107 106 105 105 106 106 107 107 108 109
57 57 58 59 60 60 61 62 63 65 68 70 71 71 72 73 74 74 74 73 73 72 72 72 74 76 78 79 79 79 79 81 83 88 93 97 97 95 93 92 90 88 86 85 84 83 83 83 85 86 88 90 91 90 90 90 89 89 91 95 97 98 100 101 102 104 105 105 104 104 106 108 110 109 109 108 107 106 105 104 104 104 105 105 106 106 107
56 57 58 59 59 60 60 60 61 63 66 68 70 70 71 72 72 72 72 71 71 70 70 69 70 72 74 75 76 76 76 76 77 80 86 91 94 95 95 93 91 89 86 84 82 81 81 82 83 84 86 87 88 88 89 90 90 90 92 94 96 97 98 99 100 101 102 102 102 101 102 103 105 104 104 104 104 103 103 102 102 102 103 103 104 105 105
56 57 58 58 59 59 58 58 59 61 64 67 69 70 71 71 71 70 70 69 68 68 68 67 67 69 70 71 72 73 72 72 73 75 79 84 88 92 93 92 91 89 87 84 82 81 81 81 81 82 83 85 87 88 88 89 91 92 92 92 94 96 98 99 99 100 100 101 100 100 99 100 101 102 101 101 100 100 100 100 99 100 100 101 102 102 102
57 58 58 58 58 57 56 57 59 61 64 67 70 71 72 71 71 70 69 68 67 66 67 66 65 66 67 68 69 70 70 69 69 71 73 76 81 85 88 89 89 87 86 84 83 83 82 82 81 80 81 83 86 87 88 89 91 93 92 93 94 95 97 98 99 99 100 100 100 99 99 100 100 100 99 99 98 98 98 97 97 97 97 98 98 98 98
60 61 60 59 58 57 56 58 60 62 66 70 72 73 73 72 72 71 70 68 67 66 66 66 65 65 64 64 65 67 67 66 67 68 69 70 73 78 82 85 86 85 83 82 83 84 84 83 81 80 81 83 85 87 89 90 91 92 93 93 94 95 96 98 99 99 100 99 99 99 99 99 99 99 98 98 97 97 97 97 97 96 95 95 95 95 96
64 65 64 63 62 60 59 60 63 66 69 73 75 76 75 75 74 73 71 70 69 68 67 66 65 65 64 63 62 64 65 64 65 66 67 67 68 72 77 80 82 83 82 81 82 83 84 83 82 82 83 84 85 88 90 90 90 91 92 93 94 95 96 98 99 99 99 99 99 99 98 98 98 98 97 97 97 96 96 95 96 95 94 93 93 93 93
68 70 69 69 67 64 63 65 68 70 73 76 78 79 79 78 76 75 74 73 73 71 70 68 67 65 64 63 62 62 62 63 63 64 65 65 65 68 72 75 78 79 79 80 83 84 83 82 82 82 82 85 87 89 90 91 91 91 91 92 93 95 96 97 98 98 98 98 98 98 97 97 97 97 96 95 95 94 94 93 93 92 91 90 90 90 90
73 74 74 73 71 68 68 70 73 75 78 80 81 82 82 81 80 79 78 78 77 76 74 72 70 68 66 65 64 63 62 62 62 62 63 64 63 64 67 71 76 77 77 79 83 84 81 80 82 81 81 83 86 88 88 89 90 91 90 90 91 93 94 95 96 96 97 97 97 97 97 97 96 96 96 95 94 93 92 91 90 90 89 88 87 87 86
75 76 76 75 73 71 72 74 77 80 82 83 84 84 84 84 83 83 83 82 81 80 79 77 75 73 70 68 67 66 64 63 62 61 62 64 64 63 63 67 72 74 74 77 82 84 81 80 81 81 80 81 84 85 86 88 89 89 89 89 90 92 93 94 95 95 95 95 95 95 95 95 95 95 95 95 94 93 92 90 89 88 88 88 87 87 86
76 76 76 75 74 74 76 79 81 83 85 86 86 87 87 87 87 87 87 86 85 84 83 82 79 77 74 71 70 69 67 66 64 62 62 64 65 64 62 65 69 71 72 75 80 82 81 81 82 82 82 81 82 83 85 87 88 89 89 89 90 91 92 93 94 95 95 96 96 96 95 95 94 94 93 93 92 92 91 91 90 89 88 87 87 87 87
76 77 77 76 77 79 81 82 84 85 86 87 88 88 89 89 90 89 89 90 89 88 87 86 83 81 78 75 73 72 70 69 67 65 63 64 66 65 62 63 66 69 70 74 78 81 82 82 83 83 84 83 83 83 85 86 88 89 90 90 90 90 90 91 92 93 94 94 95 96 96 96 96 95 93 92 91 90 90 90 90 90 89 88 87 87 87
77 77 78 79 81 82 83 84 85 86 87 87 88 89 90 91 92 92 92 92 93 92 91 89 86 84 82 79 77 74 72 71 69 67 64 65 66 65 63 63 65 68 69 72 76 80 82 83 84 84 84 84 85 86 87 87 88 89 89 90 90 90 89 89 89 90 91 92 92 92 93 94 95 95 94 93 92 90 90 90 90 89 89 89 88 88 88
77 79 80 82 83 84 85 85 85 86 87 88 89 90 91 92 93 94 95 95 95 95 93 91 88 87 85 82 79 76 74 73 71 69 68 68 67 65 63 63 66 68 69 71 73 77 81 83 84 84 83 84 86 87 87 88 88 89 90 91 91 90 89 89 88 88 89 90 90 91 91 91 92 93 93 94 93 92 91 90 90 90 90 89 88 88 89
79 80 81 82 83 84 84 85 85 86 88 90 91 92 93 93 94 96 97 97 98 97 96 93 91 89 86 84 80 78 77 75 73 71 71 71 68 66 65 66 67 69 70 71 73 75 78 81 82 83 83 84 86 87 88 89 89 89 90 90 91 91 91 90 89 89 89 89 90 90 89 89 89 89 90 90 92 92 91 90 90 91 91 91 89 88 88
79 80 80 81 81 82 83 84 86 87 89 91 92 93 94 95 96 97 98 99 99 98 97 95 92 89 87 85 82 79 78 77 74 72 73 72 69 67 69 71 71 70 71 71 73 75 77 78 79 81 81 83 84 86 88 89 91 91 91 91 92 93 93 93 92 92 92 92 91 90 89 88 87 86 85 85 86 88 90 91 91 90 90 90 89 88 88
77 78 78 79 80 82 83 85 87 88 90 91 92 94 95 96 98 99 100 100 100 99 97 95 92 89 88 87 84 80 80 80 77 74 75 75 73 71 72 73 73 72 72 72 73 75 76 77 77 79 80 80 82 84 87 89 91 93 93 93 93 94 95 95 95 95 96 96 94 92 90 89 87 86 84 82 82 84 87 89 90 90 89 87 87 86 86
76 76 77 79 80 82 84 86 88 89 91 92 93 95 96 98 99 100 100 100 100 99 97 95 93 91 88 87 85 82 82 84 81 78 79 81 80 77 76 75 72 71 73 74 74 74 75 75 76 77 79 80 81 84 86 88 90 92 94 94 95 95 96 96 96 96 97 98 98 96 94 92 89 87 85 83 81 81 83 85 86 87 87 87 85 84 82
76 76 78 80 81 83 84 86 87 89 91 93 94 95 97 98 99 100 100 100 99 99 98 96 94 91 89 88 88 86 87 88 86 83 83 86 86 84 81 77 72 71 73 75 73 73 74 75 75 76 77 79 81 83 85 88 90 91 93 94 95 96 97 96 96 96 96 97 98 98 97 95 93 90 88 85 82 80 80 81 83 84 85 86 84 82 81
76 77 79 80 82 83 84 85 86 88 91 93 94 96 97 98 99 100 101 100 101 100 99 97 95 92 91 92 91 90 91 93 92 89 87 87 87 87 84 78 73 73 75 74 73 73 74 75 76 77 78 80 83 85 86 88 90 91 92 94 95 97 97 96 95 95 95 95 96 96 96 95 94 92 90 87 83 80 78 79 80 82 83 83 82 81 79
76 77 78 80 82 83 84 85 87 88 90 93 94 96 97 98 100 102 103 103 103 103 101 100 98 97 96 95 95 94 94 95 95 92 89 86 86 87 85 79 76 76 77 74 73 74 75 76 77 79 80 82 84 87 88 90 91 91 92 93 95 97 97 96 95 94 94 94 94 94 94 93 93 92 90 87 82 79 77 76 76 78 79 79 79 79 79
75 76 78 80 83 84 86 88 89 89 91 93 94 96 98 100 101 103 105 105 106 105 105 104 103 101 100 100 101 101 101 99 98 95 90 86 86 88 87 82 78 78 78 75 74 75 76 77 78 79 82 84 86 88 90 91 92 92 92 93 95 96 96 95 93 93 93 93 93 93 92 92 91 91 89 85 81 77 73 70 70 72 74 75 76 77 77
76 78 80 82 85 87 89 90 90 91 93 94 95 97 99 101 102 105 107 108 108 109 109 107 104 103 104 106 107 107 106 104 101 97 91 88 88 90 88 84 80 80 79 77 76 76 77 78 78 80 83 87 90 92 93 94 94 93 92 93 94 95 95 94 93 92 92 92 92 91 90 90 90 90 88 83 79 74 70 66 65 67 70 71 72 74 76
Wind_Direction
202 204 206 208 211 213 216 218 220 221 223 224 225 227 228 230 232 234 236 239 242 244 247 250 252 255 257 259 262 265 268 270 273 275 277 279 281 283 285 287 289 291 293 295 296 297 298 300 301 302 303 303 304 305 305 306 307 308 309 310 311 312 313 314 314 315 316 316 318 319 320 320 322 323 324 325 324 324 324 325 325 326 326 324 326 329 329
207 209 210 213 215 217 220 223 225 227 229 231 232 234 236 237 238 240 242 245 247 249 252 254 256 258 260 263 265 267 269 271 274 276 278 280 282 284 286 288 290 291 293 294 296 297 298 299 300 301 302 303 303 304 305 305 306 307 308 309 310 311 311 312 312 313 314 315 316 318 318 319 320 321 322 323 322 322 323 323 324 324 325 323 324 327 329
212 214 215 217 219 221 224 226 228 231 233 235 237 239 241 242 244 245 247 249 251 253 256 258 260 261 263 265 267 269 271 273 275 277 279 282 284 286 287 289 290 291 293 294 295 296 298 299 300 301 302 302 303 304 304 305 305 306 307 308 309 309 309 310 310 310 311 312 313 314 316 316 317 318 320 321 321 321 321 321 322 323 324 323 323 325 328
218 220 222 223 225 226 228 230 232 234 236 237 239 241 243 245 247 249 251 253 254 256 258 260 262 263 265 267 268 270 272 274 275 278 280 282 284 286 288 289 290 291 292 293 294 295 296 297 299 300 301 301 302 303 303 304 304 305 306 306 307 308 308 309 310 310 310 311 312 313 315 316 317 317 319 319 320 320 320 320 321 322 323 323 323 324 326
222 224 226 228 230 232 234 235 237 238 240 241 243 244 246 248 249 252 253 255 257 259 260 262 263 265 267 268 270 271 273 274 276 277 279 280 282 284 286 287 289 290 291 291 292 293 295 296 297 298 299 300 301 301 302 303 303 304 305 305 306 307 308 308 310 310 310 311 313 314 315 316 316 316 318 318 319 319 319 320 320 321 322 323 324 325 325
224 226 228 230 233 235 237 239 240 242 243 245 247 248 250 251 253 254 256 257 259 261 263 264 265 267 268 270 271 273 274 275 276 277 278 280 281 283 284 286 288 289 290 291 292 293 294 295 296 297 298 299 300 301 301 302 302 303 304 304 304 305 306 307 309 310 310 310 312 313 313 314 314 314 316 317 318 319 319 319 319 320 321 322 323 324 323
228 229 230 232 234 235 238 239 241 243 245 246 248 250 252 254 255 257 259 260 261 263 264 266 267 268 270 271 273 274 275 276 277 278 279 280 282 283 285 286 288 289 290 291 291 292 293 294 295 297 297 298 299 299 300 301 301 302 302 303 303 304 305 305 307 309 309 309 310 311 312 312 312 312 314 316 317 318 318 318 318 318 320 321 322 322 323
232 234 235 235 237 238 239 241 242 244 246 247 249 250 252 254 256 258 260 262 263 264 266 267 268 270 271 273 274 275 276 277 278 279 280 281 282 283 285 286 287 288 289 290 291 292 293 294 294 295 296 297 297 298 299 300 300 301 301 302 302 302 303 304 305 307 307 307 308 310 310 311 311 311 313 315 315 316 316 316 316 317 318 320 320 321 322
238 239 240 241 242 243 244 246 247 248 249 250 252 253 254 255 257 259 260 262 264 265 266 268 269 270 272 273 275 276 277 278 279 280 280 281 282 283 284 285 286 287 288 289 290 291 292 293 294 295 295 296 297 298 298 299 299 300 300 301 301 301 302 302 303 304 305 305 306 308 309 310 309 309 311 312 313 314 315 315 315 315 316 318 319 319 321
244 245 246 247 248 249 250 251 252 253 254 255 256 257 259 260 261 262 263 264 265 266 267 268 269 271 272 273 274 275 277 278 279 280 280 281 282 283 284 285 286 287 288 289 290 290 291 292 293 294 295 295 296 297 297 298 298 299 299 300 300 300 301 301 301 303 304 304 304 306 308 308 307 307 309 310 311 313 314 314 313 312 314 317 318 318 319
248 249 250 251 252 253 254 254 255 256 257 258 259 260 261 262 264 265 266 267 267 268 269 269 270 271 272 273 274 275 276 277 278 278 279 280 281 282 283 284 285 286 287 288 288 289 290 291 292 293 293 294 295 296 296 297 297 298 298 299 299 299 300 300 301 302 303 303 303 304 306 307 305 306 307 308 309 311 312 313 312 311 313 316 317 317 318
249 250 252 253 255 256 257 258 259 259 260 260 261 262 263 264 265 266 267 268 269 270 270 271 271 272 273 273 274 275 276 276 277 278 278 279 280 281 282 283 284 284 285 286 287 288 288 289 290 291 292 293 294 294 295 296 296 297 297 298 298 298 299 299 300 300 301 302 302 303 305 306 305 305 306 307 308 309 311 312 311 311 313 315 315 315 316
249 251 253 255 256 258 259 261 262 263 264 264 264 265 266 266 267 268 268 269 270 270 271 272 272 273 274 274 275 275 276 276 277 278 278 279 280 280 281 282 283 283 284 285 286 286 287 288 289 290 291 291 292 293 294 294 295 296 296 296 297 297 298 298 299 300 300 301 301 303 305 305 304 304 305 305 307 308 309 310 310 310 312 313 313 314 315
249 251 253 255 257 259 260 262 263 264 266 267 267 268 268 269 269 269 270 271 271 271 272 272 273 273 274 274 275 275 276 276 277 277 278 278 279 280 280 281 281 282 283 283 284 285 285 286 286 287 288 289 290 291 292 293 294 295 295 295 296 297 297 298 299 300 300 301 302 303 305 305 303 303 303 304 306 306 307 308 309 310 310 311 312 313 314
248 250 251 253 255 257 258 260 261 263 264 265 266 267 268 269 269 269 270 270 271 271 272 272 272 272 273 273 273 274 274 275 275 276 276 277 278 278 279 279 280 280 281 281 282 283 283 284 284 285 286 286 287 289 290 291 292 293 294 295 295 297 297 298 299 300 300 300 301 302 303 303 301 301 301 303 304 304 305 307 309 309 309 310 311 313 313
248 250 251 253 254 256 257 258 260 261 262 263 264 266 267 268 268 269 269 269 270 270 271 271 271 271 272 272 273 273 273 274 274 275 276 276 277 277 278 278 279 279 280 280 281 281 282 283 283 284 285 286 287 288 289 290 291 292 293 294 295 296 297 297 298 299 299 300 300 301 302 301 299 299 300 302 303 303 304 307 309 308 308 309 311 312 312
251 252 253 255 256 257 258 260 261 262 263 264 264 265 266 267 268 269 269 270 271 271 271 271 271 271 272 272 273 273 274 274 274 275 276 276 277 277 278 278 279 279 279 280 281 282 282 283 284 285 286 287 287 288 289 290 291 291 292 293 294 295 296 297 297 297 298 299 299 300 300 300 298 299 300 301 302 303 304 307 308 308 308 309 310 310 310
257 257 258 258 259 260 261 262 262 263 264 265 265 266 267 268 268 269 270 270 271 272 272 272 272 272 272 273 273 273 274 274 275 276 276 277 278 278 279 279 279 280 280 281 282 282 283 284 284 285 286 287 287 288 289 290 291 291 292 293 293 294 295 296 296 296 297 297 297 298 299 298 297 298 299 301 302 303 305 307 308 308 308 308 309 309 309
262 262 262 262 263 263 264 264 265 266 266 267 267 268 268 269 270 271 271 272 272 273 273 273 274 274 274 274 275 275 275 276 276 276 277 278 278 279 279 280 280 281 281 282 283 283 284 285 285 286 287 287 288 289 290 290 291 291 292 293 293 294 294 295 295 295 295 295 296 296 296 294 295 296 298 301 302 303 305 307 307 307 307 307 307 308 308
263 264 264 265 265 265 266 266 267 267 268 268 269 269 270 271 272 272 273 273 274 275 275 275 275 275 276 276 276 277 277 277 278 278 278 278 279 279 280 280 281 281 282 283 283 284 284 285 286 287 287 288 289 289 290 290 291 292 292 293 293 294 294 294 294 294 294 293 294 294 293 292 293 295 298 300 301 302 304 305 305 305 305 305 306 307 307
266 266 266 266 266 267 267 267 267 268 268 269 270 270 271 271 272 272 273 273 274 275 276 276 276 277 277 277 277 278 278 278 279 279 279 280 280 281 281 281 282 282 283 283 284 284 285 286 286 287 288 288 289 289 290 290 291 292 292 293 294 294 294 294 294 294 293 292 292 292 291 291 293 295 298 300 301 301 302 303 304 304 304 304 305 306 306
266 267 267 267 268 268 268 268 269 269 269 270 270 271 272 272 272 273 273 274 274 275 275 276 277 277 278 278 278 278 278 278 279 279 280 281 281 282 282 282 283 283 284 284 285 285 286 286 287 288 288 289 289 290 290 291 292 292 292 292 293 294 293 293 293 293 291 290 291 291 290 291 294 297 299 300 300 301 302 303 303 303 302 303 304 305 305
267 267 268 268 269 269 269 270 270 270 270 271 271 272 272 272 273 274 274 275 276 276 276 276 277 277 278 278 278 279 279 279 279 279 280 280 281 281 282 282 283 284 284 285 285 285 286 287 287 288 289 289 289 290 290 291 291 291 291 292 293 292 291 290 290 290 288 288 289 289 289 291 295 298 298 298 299 301 302 302 301 302 302 302 304 304 304
267 268 268 269 270 271 271 271 272 272 272 272 273 273 273 274 274 275 275 276 277 278 278 278 278 279 279 280 280 280 280 280 280 280 280 280 281 281 282 282 283 283 284 284 285 285 286 287 287 288 288 288 288 288 289 289 289 289 289 290 291 290 288 288 287 287 286 286 286 287 288 292 295 296 296 297 298 300 300 299 299 300 300 301 302 303 302
268 268 269 270 271 271 272 272 273 273 273 274 274 275 275 276 276 276 277 278 278 279 280 280 281 281 281 282 282 282 282 282 282 282 282 282 282 282 282 282 283 283 284 284 285 285 285 286 286 286 286 286 286 287 287 287 288 288 289 289 288 286 285 284 284 284 284 284 285 287 289 292 293 292 293 295 296 297 297 297 297 298 299 300 301 301 301
270 271 271 272 273 273 274 274 274 275 275 275 275 276 277 277 277 278 278 279 279 280 281 281 281 282 282 282 283 283 283 283 283 283 283 283 283 283 283 283 283 284 284 284 284 285 285 285 285 285 284 284 284 285 285 286 286 287 287 287 285 283 282 283 282 282 282 283 285 288 290 290 290 290 292 294 294 294 294 294 295 296 297 298 298 298 299
273 273 274 275 275 276 276 277 277 277 277 277 277 278 278 278 278 279 279 280 281 281 282 282 282 283 283 284 284 284 285 285 284 284 284 284 285 285 285 285 285 285 284 284 285 285 285 285 285 284 284 284 284 284 284 285 285 286 286 285 283 282 282 282 282 281 282 284 286 288 289 288 288 288 290 291 292 292 292 293 293 294 295 295 296 296 296
275 275 276 276 277 277 278 278 278 279 279 279 279 279 279 279 279 280 280 281 281 282 282 283 283 284 284 285 285 286 287 287 287 287 286 286 287 287 287 287 286 286 286 286 286 286 286 286 286 285 285 285 284 284 285 285 285 285 285 284 282 282 282 281 281 282 284 285 287 288 288 288 288 288 289 290 290 291 291 291 292 292 293 293 293 294 294
275 275 276 276 277 277 278 279 279 280 280 280 280 280 280 280 280 280 280 281 281 281 282 282 283 283 283 284 285 285 286 287 288 288 288 288 288 288 288 288 288 288 288 288 288 288 288 288 287 287 286 285 285 285 285 285 285 285 284 283 282 281 281 281 282 283 285 286 287 288 288 289 289 290 290 291 291 291 291 291 291 292 292 293 293 293 293
275 276 276 277 277 277 278 278 279 280 280 281 281 281 281 281 281 281 281 281 281 281 281 281 281 281 282 282 283 284 285 286 288 289 289 290 289 289 289 289 289 289 290 290 290 290 289 289 288 287 286 286 286 286 286 285 284 284 283 282 281 281 281 282 283 284 285 286 286 287 288 288 289 290 291 292 292 292 291 292 292 292 292 293 293 294 294
276 276 276 276 276 277 277 277 278 280 281 281 282 282 282 283 283 283 282 282 282 281 280 280 279 280 280 281 281 282 283 284 286 288 290 290 291 291 291 290 290 290 291 291 291 290 290 289 288 287 286 286 287 287 286 285 284 283 282 281 281 281 281 282 283 284 285 285 286 286 287 288 289 290 290 291 292 292 292 293 293 293 293 294 294 294 295
277 277 277 277 277 277 277 278 279 281 282 283 283 284 284 284 284 284 284 283 283 282 281 279 279 279 279 280 280 281 282 282 285 287 289 290 291 291 291 292 292 292 291 291 291 291 290 289 288 288 287 287 287 287 286 285 284 282 281 282 282 283 283 283 283 284 285 285 286 286 287 287 288 288 289 290 292 293 293 294 294 294 295 295 295 295 296
280 280 280 279 278 278 279 281 282 284 286 287 287 287 287 286 286 286 285 285 285 284 282 280 279 279 278 278 279 280 280 281 283 285 288 289 290 291 292 292 292 293 293 292 292 291 290 289 288 288 288 288 287 287 286 284 283 283 283 283 283 283 283 284 284 285 285 286 286 286 286 287 288 289 290 291 292 293 294 294 295 295 295 295 295 296 297
285 285 284 282 281 282 284 286 289 291 292 293 292 291 291 290 290 289 288 288 287 286 284 283 282 281 280 279 279 279 279 280 281 284 286 289 290 291 292 293 293 293 294 294 293 292 291 290 289 289 288 287 287 286 285 284 284 285 285 284 284 284 284 284 285 285 285 285 286 287 287 288 289 290 292 293 293 294 295 295 295 295 295 295 296 297 297
291 290 289 288 288 288 291 293 295 296 297 297 296 295 294 294 293 292 291 291 290 289 287 286 284 283 282 281 282 282 281 281 282 283 285 287 289 291 292 293 293 293 293 293 293 292 291 291 291 290 289 288 287 286 285 285 285 286 286 286 285 285 285 285 285 286 286 287 288 289 289 290 291 292 293 294 295 295 296 296 296 296 297 297 298 298 298
294 294 294 293 293 294 296 299 300 300 300 300 299 298 297 297 296 295 295 294 294 292 290 289 287 285 284 282 282 282 282 282 283 284 285 286 288 290 291 292 293 293 293 292 292 291 291 291 291 290 290 289 287 287 287 287 288 288 288 288 288 287 287 287 287 287 288 289 290 291 291 292 293 294 295 295 296 296 297 297 298 298 299 299 299 299 299
294 295 295 296 296 297 300 301 302 302 302 302 301 301 300 299 299 298 299 299 298 296 295 293 291 290 288 286 285 284 283 283 283 283 284 285 287 289 290 291 291 292 292 291 291 290 290 290 290 290 290 289 288 289 290 291 291 291 290 290 290 289 289 289 289 290 291 292 292 292 293 294 294 295 296 296 296 297 297 298 298 299 299 299 299 299 299
293 295 295 296 297 299 301 302 302 303 303 302 302 302 301 301 301 302 302 302 302 301 300 299 297 296 294 293 291 290 288 287 286 285 284 284 285 286 288 289 289 289 290 289 289 289 289 288 288 288 288 288 288 290 291 292 292 292 292 292 291 291 291 292 292 292 293 293 294 294 295 296 296 296 297 297 297 298 298 299 299 299 299 299 298 298 298
293 294 294 295 297 299 301 302 302 303 302 302 302 302 302 302 303 304 304 305 304 304 303 302 301 300 299 299 298 296 295 293 291 289 288 287 286 285 286 286 286 286 287 287 287 288 288 287 287 287 287 287 288 289 290 290 290 290 291 292 292 292 292 293 293 293 294 294 295 295 295 295 296 296 297 298 299 299 300 300 300 299 299 299 299 299 299
291 292 293 295 298 300 301 301 301 301 301 301 301 301 302 303 304 305 305 305 305 305 304 304 303 303 302 303 303 302 300 298 296 294 293 292 290 288 287 286 285 285 285 284 285 286 287 287 287 287 287 288 288 289 289 289 289 290 291 292 292 292 293 293 294 294 295 295 295 295 295 296 296 296 297 297 298 299 299 299 299 299 298 299 299 299 299
290 292 294 296 298 299 299 299 299 299 300 300 300 301 302 303 304 305 305 305 305 305 305 304 305 305 305 305 305 304 303 302 300 298 297 296 294 292 291 288 285 284 284 284 285 285 286 286 287 287 288 289 289 289 289 290 290 291 292 292 293 293 293 293 294 294 294 294 295 295 296 296 296 297 297 297 297 297 297 297 297 297 297 297 297 297 297
291 293 295 296 297 297 297 298 298 298 299 300 300 301 302 303 304 304 305 305 305 305 304 304 305 306 306 306 306 305 304 303 301 300 299 297 294 293 292 290 286 284 283 283 284 285 286 286 287 287 288 289 289 290 291 291 291 292 292 292 293 293 293 293 293 293 294 294 294 294 294 295 296 296 296 297 297 297 297 297 297 296 296 296 296 296 295
292 294 295 295 295 295 296 297 297 298 299 300 300 301 302 303 303 304 304 304 303 303 304 304 305 306 306 306 306 306 305 304 302 302 300 298 295 294 292 290 287 285 282 282 283 284 285 286 287 288 288 288 289 290 290 291 291 291 292 292 293 293 293 293 294 294 294 294 294 294 294 295 295 296 296 297 298 298 298 297 297 296 296 295 295 295 295
291 292 292 293 293 294 295 297 298 298 299 299 300 301 301 302 302 302 302 302 302 302 303 304 305 305 306 306 306 307 306 305 304 303 302 299 298 296 294 290 287 284 283 282 282 282 283 284 286 287 287 287 288 289 289 289 290 290 291 292 293 293 294 294 294 295 295 294 294 295 295 296 296 296 296 297 297 297 297 297 296 295 295 295 295 295 295
289 290 291 292 294 295 296 297 298 298 298 299 300 300 300 301 301 301 301 301 301 302 303 303 304 305 306 306 306 307 306 305 304 304 303 301 299 299 297 293 289 286 285 283 283 282 283 283 284 285 285 286 286 287 288 288 289 290 291 291 292 293 294 294 295 295 296 296 296 296 297 297 297 296 296 296 296 296 296 295 294 294 294 295 296 296 296
290 291 293 294 296 297 297 297 297 297 298 298 299 299 299 300 300 300 300 301 301 302 302 303 304 305 306 307 307 307 308 306 305 305 304 303 301 300 297 294 291 290 288 285 283 283 283 283 283 283 283 284 284 285 285 286 287 288 289 290 291 292 292 294 295 296 297 297 298 298 298 298 298 297 297 296 295 294 294 294 294 295 295 295 295 295 295
292 293 294 295 295 296 296 296 296 297 297 298 298 298 299 299 299 300 300 300 301 301 302 303 304 305 306 307 307 308 308 307 307 307 307 306 304 302 298 295 293 292 290 287 285 284 284 283 283 283 283 283 283 283 284 285 286 287 288 290 291 291 292 293 294 295 296 296 297 298 299 299 299 298 297 296 295 294 294 294 294 295 294 294 294 294 295
292 293 293 294 294 294 294 295 296 296 297 297 297 298 298 298 299 299 299 300 301 302 302 303 304 306 307 308 308 309 310 309 309 309 310 309 307 304 301 297 295 293 291 289 287 287 286 285 285 284 284 284 284 283 284 284 285 286 287 288 289 290 291 291 292 293 294 294 295 296 297 298 298 298 297 297 296 296 296 295 294 294 294 294 295 295 296
291 292 292 293 293 293 294 294 295 296 297 297 297 297 298 298 299 299 299 300 301 302 303 304 305 307 308 309 309 311 311 311 310 311 311 310 308 305 302 299 296 294 292 290 289 288 287 286 286 285 284 283 283 282 282 283 283 284 285 286 287 288 289 290 291 292 292 293 293 293 294 295 296 296 297 297 297 297 297 296 295 295 295 295 296 297 296
291 292 292 292 293 293 294 295 295 296 296 296 296 297 298 298 299 299 300 301 302 302 304 305 307 308 310 311 311 312 312 312 312 311 310 309 307 304 301 299 298 296 295 294 293 291 289 288 288 286 285 284 283 282 282 282 283 283 284 285 286 287 288 289 291 291 291 291 292 292 293 294 295 295 295 296 296 296 296 296 296 296 296 296 296 296 296
291 292 292 293 293 294 294 295 295 296 295 295 296 296 297 297 298 299 300 300 301 303 305 307 308 310 312 313 313 313 313 312 311 310 309 308 307 304 301 300 299 298 297 296 294 292 291 289 288 287 286 284 283 283 283 283 283 284 285 285 286 287 288 290 290 291 291 291 292 293 294 294 294 293 294 294 295 296 297 296 296 295 294 294 294 293 293
292 292 293 293 294 294 294 294 295 295 295 295 296 296 297 297 298 299 299 300 302 304 306 308 311 313 313 313 313 313 312 311 310 308 308 307 306 304 302 301 300 298 297 295 293 290 289 287 287 286 285 284 283 283 283 283 283 284 285 285 287 288 290 290 291 291 292 293 294 294 294 293 292 291 292 294 296 297 296 294 292 291 290 290 290 290 290